Time,TemperatureF,DewpointF,PressureIn,WindDirection,WindDirectionDegrees,WindSpeedMPH,WindSpeedGustMPH,Humidity,HourlyPrecipIn,Conditions,Clouds,dailyrainin,SolarRadiationWatts/m^2,SoftwareType,DateUTC
2012-09-24 00:00:00,75.2,66.7,30.08,North,0,0.0,3.0,75,0.00,,---,0.00,0.00,VWS V14.01,2012-09-24 04:00:00,
2012-09-24 01:00:00,74.2,64.2,30.07,NNW,338,0.0,4.0,71,0.00,,---,0.00,0.00,VWS V14.01,2012-09-24 05:00:00,
2012-09-24 02:00:00,72.9,63.0,30.05,NNE,22,0.0,3.0,71,0.00,,---,0.00,0.00,VWS V14.01,2012-09-24 06:00:00,
2012-09-24 03:00:00,71.5,62.8,30.03,North,0,0.0,3.0,74,0.00,,---,0.00,0.00,VWS V14.01,2012-09-24 07:00:00,
2012-09-24 04:00:00,70.7,60.5,30.03,ENE,68,1.0,6.0,70,0.00,,---,0.00,0.00,VWS V14.01,2012-09-24 08:00:00,
2012-09-24 05:00:00,70.8,60.5,30.04,ENE,68,1.0,6.0,70,0.00,,---,0.00,0.00,VWS V14.01,2012-09-24 09:00:00,
2012-09-24 06:00:00,70.6,60.8,30.05,ENE,68,1.0,5.0,71,0.00,,---,0.00,0.00,VWS V14.01,2012-09-24 10:00:00,
2012-09-24 07:00:00,70.6,60.8,30.05,ENE,68,1.0,5.0,71,0.00,,---,0.00,0.00,VWS V14.01,2012-09-24 11:00:00,
2012-09-24 07:40:00,70.1,62.9,30.08,North,355,0.0,1.0,78,0.00,,---,0.00,12.00,VWS V14.01,2012-09-24 11:40:00,
2012-09-24 07:45:00,70.2,62.7,30.08,NE,35,0.0,1.0,77,0.00,,---,0.00,21.00,VWS V14.01,2012-09-24 11:45:00,
2012-09-24 07:50:00,70.3,62.8,30.08,NNE,23,0.0,4.0,77,0.00,,---,0.00,25.00,VWS V14.01,2012-09-24 11:50:00,
2012-09-24 07:55:00,70.3,62.0,30.08,ENE,75,1.0,4.0,75,0.00,,---,0.00,33.00,VWS V14.01,2012-09-24 11:55:00,
2012-09-24 08:00:00,70.3,61.6,30.08,NE,36,2.0,4.0,74,0.00,,---,0.00,37.00,VWS V14.01,2012-09-24 12:00:00,
2012-09-24 08:05:00,70.4,61.7,30.08,ENE,61,3.0,5.0,74,0.00,,---,0.00,40.00,VWS V14.01,2012-09-24 12:05:00,
2012-09-24 08:10:00,70.4,61.7,30.08,NE,45,3.0,4.0,74,0.00,,---,0.00,47.00,VWS V14.01,2012-09-24 12:10:00,
2012-09-24 08:15:00,70.5,61.4,30.08,ENE,57,2.0,4.0,73,0.00,,---,0.00,54.00,VWS V14.01,2012-09-24 12:15:00,
2012-09-24 08:20:00,70.4,61.7,30.08,NE,39,3.0,5.0,74,0.00,,---,0.00,67.00,VWS V14.01,2012-09-24 12:20:00,
2012-09-24 08:25:00,70.6,61.9,30.09,ENE,63,0.0,5.0,74,0.00,,---,0.00,70.00,VWS V14.01,2012-09-24 12:25:00,
2012-09-24 08:30:00,70.7,61.6,30.09,East,79,0.0,5.0,73,0.00,,---,0.00,74.00,VWS V14.01,2012-09-24 12:30:00,
2012-09-24 08:35:00,70.8,62.1,30.09,East,87,2.0,5.0,74,0.00,,---,0.00,84.00,VWS V14.01,2012-09-24 12:35:00,
2012-09-24 08:40:00,70.8,62.5,30.09,ENE,67,1.0,5.0,75,0.00,,---,0.00,84.00,VWS V14.01,2012-09-24 12:40:00,
2012-09-24 08:45:00,70.9,62.6,30.09,ENE,70,1.0,5.0,75,0.00,,---,0.00,76.00,VWS V14.01,2012-09-24 12:45:00,
2012-09-24 08:50:00,71.0,62.7,30.09,NE,49,2.0,5.0,75,0.00,,---,0.00,95.00,VWS V14.01,2012-09-24 12:50:00,
2012-09-24 08:55:00,71.1,62.4,30.09,ENE,70,2.0,5.0,74,0.00,,---,0.00,118.00,VWS V14.01,2012-09-24 12:55:00,
2012-09-24 09:00:00,71.3,62.2,30.09,ENE,69,0.0,5.0,73,0.00,,---,0.00,148.00,VWS V14.01,2012-09-24 13:00:00,
2012-09-24 09:05:00,71.8,62.7,30.09,East,92,2.0,5.0,73,0.00,,---,0.00,183.00,VWS V14.01,2012-09-24 13:05:00,
2012-09-24 09:10:00,72.8,62.5,30.09,North,11,1.0,6.0,70,0.00,,---,0.00,174.00,VWS V14.01,2012-09-24 13:10:00,
2012-09-24 09:15:00,73.1,61.9,30.10,NNE,25,2.0,7.0,68,0.00,,---,0.00,146.00,VWS V14.01,2012-09-24 13:15:00,
2012-09-24 09:20:00,72.9,61.7,30.10,NE,45,1.0,7.0,68,0.00,,---,0.00,141.00,VWS V14.01,2012-09-24 13:20:00,
2012-09-24 09:25:00,72.7,62.0,30.10,ENE,75,1.0,7.0,69,0.00,,---,0.00,151.00,VWS V14.01,2012-09-24 13:25:00,
2012-09-24 09:30:00,72.8,62.0,30.10,NNE,21,3.0,7.0,69,0.00,,---,0.00,192.00,VWS V14.01,2012-09-24 13:30:00,
2012-09-24 09:35:00,73.2,61.6,30.10,East,85,1.0,7.0,67,0.00,,---,0.00,220.00,VWS V14.01,2012-09-24 13:35:00,
2012-09-24 09:40:00,73.6,62.4,30.10,ENE,64,1.0,7.0,68,0.00,,---,0.00,218.00,VWS V14.01,2012-09-24 13:40:00,
2012-09-24 09:45:00,73.9,62.3,30.10,ENE,71,1.0,7.0,67,0.00,,---,0.00,223.00,VWS V14.01,2012-09-24 13:45:00,
2012-09-24 09:50:00,73.9,60.5,30.10,NE,36,2.0,7.0,63,0.00,,---,0.00,181.00,VWS V14.01,2012-09-24 13:50:00,
2012-09-24 09:55:00,73.9,62.3,30.10,ENE,58,0.0,7.0,67,0.00,,---,0.00,183.00,VWS V14.01,2012-09-24 13:55:00,
2012-09-24 10:00:00,74.0,62.8,30.11,NE,46,1.0,7.0,68,0.00,,---,0.00,294.00,VWS V14.01,2012-09-24 14:00:00,
2012-09-24 10:05:00,74.8,62.3,30.11,NNE,32,0.0,7.0,65,0.00,,---,0.00,466.00,VWS V14.01,2012-09-24 14:05:00,
2012-09-24 10:11:00,76.0,63.0,30.11,NE,37,0.0,4.0,64,0.00,,---,0.00,519.00,VWS V14.01,2012-09-24 14:11:00,
2012-09-24 10:16:00,77.1,64.0,30.11,SE,124,2.0,4.0,64,0.00,,---,0.00,675.00,VWS V14.01,2012-09-24 14:16:00,
2012-09-24 10:21:00,77.4,63.4,30.11,NE,43,0.0,4.0,62,0.00,,---,0.00,292.00,VWS V14.01,2012-09-24 14:21:00,
2012-09-24 10:26:00,76.9,62.4,30.11,NE,41,4.0,7.0,61,0.00,,---,0.00,385.00,VWS V14.01,2012-09-24 14:26:00,
2012-09-24 10:31:00,77.1,62.6,30.12,NNE,24,0.0,7.0,61,0.00,,---,0.00,295.00,VWS V14.01,2012-09-24 14:31:00,
2012-09-24 10:36:00,77.2,60.8,30.12,NNW,341,0.0,7.0,57,0.00,,---,0.00,241.00,VWS V14.01,2012-09-24 14:36:00,
2012-09-24 10:41:00,77.4,62.4,30.12,NE,43,5.0,7.0,60,0.00,,---,0.00,448.00,VWS V14.01,2012-09-24 14:41:00,
2012-09-24 10:46:00,77.9,62.0,30.12,East,93,2.0,7.0,58,0.00,,---,0.00,471.00,VWS V14.01,2012-09-24 14:46:00,
2012-09-24 10:51:00,79.2,61.7,30.12,NNE,16,2.0,7.0,55,0.00,,---,0.00,721.00,VWS V14.01,2012-09-24 14:51:00,
2012-09-24 10:56:00,79.7,60.0,30.12,ENE,75,6.0,7.0,51,0.00,,---,0.00,540.00,VWS V14.01,2012-09-24 14:56:00,
2012-09-24 11:00:00,75.5,62.9,30.11,NE,46,4.0,7.0,65,0.00,,---,0.00,403.00,VWS V14.01,2012-09-24 15:00:00,
2012-09-24 11:01:00,80.0,61.9,30.12,ENE,61,6.0,7.0,54,0.00,,---,0.00,536.00,VWS V14.01,2012-09-24 15:01:00,
2012-09-24 11:06:00,80.1,59.2,30.12,NE,53,1.0,9.0,49,0.00,,---,0.00,459.00,VWS V14.01,2012-09-24 15:06:00,
2012-09-24 11:11:00,79.6,58.2,30.12,NE,37,2.0,6.0,48,0.00,,---,0.00,360.00,VWS V14.01,2012-09-24 15:11:00,
2012-09-24 11:16:00,79.5,57.5,30.12,ENE,66,4.0,8.0,47,0.00,,---,0.00,410.00,VWS V14.01,2012-09-24 15:16:00,
2012-09-24 11:21:00,79.4,56.2,30.12,ENE,68,2.0,8.0,45,0.00,,---,0.00,339.00,VWS V14.01,2012-09-24 15:21:00,
2012-09-24 11:26:00,79.5,58.1,30.12,East,96,1.0,8.0,48,0.00,,---,0.00,366.00,VWS V14.01,2012-09-24 15:26:00,
2012-09-24 11:31:00,79.5,58.1,30.12,ENE,58,1.0,8.0,48,0.00,,---,0.00,320.00,VWS V14.01,2012-09-24 15:31:00,
2012-09-24 11:36:00,79.3,57.3,30.12,NNW,338,2.0,8.0,47,0.00,,---,0.00,381.00,VWS V14.01,2012-09-24 15:36:00,
2012-09-24 11:41:00,79.1,58.3,30.12,NNE,32,3.0,8.0,49,0.00,,---,0.00,339.00,VWS V14.01,2012-09-24 15:41:00,
2012-09-24 11:46:00,79.1,57.2,30.12,NE,39,1.0,8.0,47,0.00,,---,0.00,339.00,VWS V14.01,2012-09-24 15:46:00,
2012-09-24 11:51:00,79.1,56.6,30.12,ENE,57,5.0,8.0,46,0.00,,---,0.00,411.00,VWS V14.01,2012-09-24 15:51:00,
2012-09-24 11:56:00,79.3,59.1,30.12,East,91,4.0,8.0,50,0.00,,---,0.00,360.00,VWS V14.01,2012-09-24 15:56:00,
2012-09-24 12:00:00,79.8,60.6,30.12,NNE,17,1.0,9.0,52,0.00,,---,0.00,439.00,VWS V14.01,2012-09-24 16:00:00,
2012-09-24 12:01:00,79.5,58.1,30.12,NE,52,0.0,8.0,48,0.00,,---,0.00,346.00,VWS V14.01,2012-09-24 16:01:00,
2012-09-24 12:06:00,79.3,57.3,30.11,NNW,339,1.0,8.0,47,0.00,,---,0.00,388.00,VWS V14.01,2012-09-24 16:06:00,
2012-09-24 12:11:00,79.4,58.0,30.11,ENE,69,1.0,4.0,48,0.00,,---,0.00,373.00,VWS V14.01,2012-09-24 16:11:00,
2012-09-24 12:16:00,79.4,60.3,30.11,East,91,1.0,8.0,52,0.00,,---,0.00,401.00,VWS V14.01,2012-09-24 16:16:00,
2012-09-24 12:21:00,79.7,60.5,30.11,NE,54,3.0,8.0,52,0.00,,---,0.00,438.00,VWS V14.01,2012-09-24 16:21:00,
2012-09-24 12:26:00,80.5,57.2,30.11,NW,319,0.0,8.0,45,0.00,,---,0.00,438.00,VWS V14.01,2012-09-24 16:26:00,
2012-09-24 12:31:00,81.3,61.5,30.11,NE,39,2.0,8.0,51,0.00,,---,0.00,912.00,VWS V14.01,2012-09-24 16:31:00,
2012-09-24 12:36:00,82.1,58.0,30.11,NE,50,3.0,8.0,44,0.00,,---,0.00,577.00,VWS V14.01,2012-09-24 16:36:00,
2012-09-24 12:41:00,82.1,57.4,30.11,NNE,19,3.0,9.0,43,0.00,,---,0.00,918.00,VWS V14.01,2012-09-24 16:41:00,
2012-09-24 12:46:00,82.4,55.7,30.11,ESE,104,9.0,13.0,40,0.00,,---,0.00,756.00,VWS V14.01,2012-09-24 16:46:00,
2012-09-24 12:51:00,82.5,57.1,30.11,ENE,68,2.0,13.0,42,0.00,,---,0.00,914.00,VWS V14.01,2012-09-24 16:51:00,
2012-09-24 12:56:00,82.1,55.4,30.11,East,97,3.0,13.0,40,0.00,,---,0.00,427.00,VWS V14.01,2012-09-24 16:56:00,
2012-09-24 13:00:00,79.4,59.7,30.11,NE,51,1.0,8.0,51,0.00,,---,0.00,381.00,VWS V14.01,2012-09-24 17:00:00,
2012-09-24 13:01:00,81.3,57.3,30.11,NE,54,2.0,13.0,44,0.00,,---,0.00,387.00,VWS V14.01,2012-09-24 17:01:00,
2012-09-24 13:06:00,81.0,57.7,30.11,East,85,3.0,13.0,45,0.00,,---,0.00,411.00,VWS V14.01,2012-09-24 17:06:00,
2012-09-24 13:11:00,80.8,58.1,30.11,NE,44,3.0,7.0,46,0.00,,---,0.00,615.00,VWS V14.01,2012-09-24 17:11:00,
2012-09-24 13:16:00,81.9,57.2,30.11,NE,54,2.0,7.0,43,0.00,,---,0.00,1063.00,VWS V14.01,2012-09-24 17:16:00,
2012-09-24 13:22:00,83.0,55.5,30.10,NNE,27,3.0,8.0,39,0.00,,---,0.00,867.00,VWS V14.01,2012-09-24 17:22:00,
2012-09-24 13:27:00,82.3,54.2,30.10,ENE,66,4.0,8.0,38,0.00,,---,0.00,635.00,VWS V14.01,2012-09-24 17:27:00,
2012-09-24 13:32:00,82.1,57.4,30.09,SE,135,3.0,8.0,43,0.00,,---,0.00,628.00,VWS V14.01,2012-09-24 17:32:00,
2012-09-24 13:37:00,82.2,56.8,30.09,ENE,72,3.0,8.0,42,0.00,,---,0.00,914.00,VWS V14.01,2012-09-24 17:37:00,
2012-09-24 13:42:00,82.6,58.5,30.09,ESE,110,6.0,8.0,44,0.00,,---,0.00,914.00,VWS V14.01,2012-09-24 17:42:00,
2012-09-24 13:47:00,81.9,57.2,30.08,ENE,58,3.0,8.0,43,0.00,,---,0.00,454.00,VWS V14.01,2012-09-24 17:47:00,
2012-09-24 13:52:00,82.1,56.8,30.08,ENE,70,2.0,8.0,42,0.00,,---,0.00,798.00,VWS V14.01,2012-09-24 17:52:00,
2012-09-24 13:57:00,82.9,58.1,30.08,ENE,60,1.0,8.0,43,0.00,,---,0.00,860.00,VWS V14.01,2012-09-24 17:57:00,
2012-09-24 14:00:00,80.9,55.7,30.11,ENE,71,4.0,13.0,42,0.00,,---,0.00,411.00,VWS V14.01,2012-09-24 18:00:00,
2012-09-24 14:02:00,82.8,57.4,30.08,ENE,64,3.0,8.0,42,0.00,,---,0.00,733.00,VWS V14.01,2012-09-24 18:02:00,
2012-09-24 14:07:00,82.6,58.5,30.08,ENE,66,2.0,8.0,44,0.00,,---,0.00,436.00,VWS V14.01,2012-09-24 18:07:00,
2012-09-24 14:12:00,82.9,58.8,30.08,SE,135,5.0,8.0,44,0.00,,---,0.00,504.00,VWS V14.01,2012-09-24 18:12:00,
2012-09-24 14:17:00,82.8,58.7,30.08,East,83,1.0,8.0,44,0.00,,---,0.00,494.00,VWS V14.01,2012-09-24 18:17:00,
2012-09-24 14:22:00,82.5,60.8,30.07,SE,125,0.0,8.0,48,0.00,,---,0.00,550.00,VWS V14.01,2012-09-24 18:22:00,
2012-09-24 14:27:00,82.7,59.8,30.07,North,6,3.0,10.0,46,0.00,,---,0.00,636.00,VWS V14.01,2012-09-24 18:27:00,
2012-09-24 14:32:00,83.1,61.4,30.07,ENE,60,0.0,10.0,48,0.00,,---,0.00,715.00,VWS V14.01,2012-09-24 18:32:00,
2012-09-24 14:37:00,83.0,60.7,30.07,NNE,24,0.0,10.0,47,0.00,,---,0.00,664.00,VWS V14.01,2012-09-24 18:37:00,
2012-09-24 14:42:00,83.0,60.7,30.07,NNW,333,0.0,10.0,47,0.00,,---,0.00,621.00,VWS V14.01,2012-09-24 18:42:00,
2012-09-24 14:47:00,82.8,59.3,30.06,ENE,64,3.0,10.0,45,0.00,,---,0.00,573.00,VWS V14.01,2012-09-24 18:47:00,
2012-09-24 14:52:00,82.5,59.7,30.06,East,99,1.0,10.0,46,0.00,,---,0.00,429.00,VWS V14.01,2012-09-24 18:52:00,
2012-09-24 14:57:00,81.9,62.6,30.06,NNW,327,0.0,10.0,52,0.00,,---,0.00,390.00,VWS V14.01,2012-09-24 18:57:00,
2012-09-24 15:00:00,82.7,58.6,30.08,ESE,102,3.0,8.0,44,0.00,,---,0.00,770.00,VWS V14.01,2012-09-24 19:00:00,
2012-09-24 15:02:00,81.6,60.0,30.05,NNW,327,1.0,10.0,48,0.00,,---,0.00,345.00,VWS V14.01,2012-09-24 19:02:00,
2012-09-24 15:07:00,81.3,62.5,30.05,North,360,0.0,10.0,53,0.00,,---,0.00,338.00,VWS V14.01,2012-09-24 19:07:00,
2012-09-24 15:12:00,81.3,60.9,30.05,NW,322,5.0,6.0,50,0.00,,---,0.00,323.00,VWS V14.01,2012-09-24 19:12:00,
2012-09-24 15:17:00,81.3,62.0,30.04,North,349,0.0,6.0,52,0.00,,---,0.00,359.00,VWS V14.01,2012-09-24 19:17:00,
2012-09-24 15:22:00,81.4,61.0,30.04,NE,47,1.0,6.0,50,0.00,,---,0.00,355.00,VWS V14.01,2012-09-24 19:22:00,
2012-09-24 15:27:00,81.4,63.2,30.04,North,356,0.0,6.0,54,0.00,,---,0.00,338.00,VWS V14.01,2012-09-24 19:27:00,
2012-09-24 15:32:00,81.3,60.9,30.04,ENE,67,0.0,6.0,50,0.00,,---,0.00,301.00,VWS V14.01,2012-09-24 19:32:00,
2012-09-24 15:37:00,81.4,61.5,30.04,ESE,107,1.0,6.0,51,0.00,,---,0.00,295.00,VWS V14.01,2012-09-24 19:37:00,
2012-09-24 15:42:00,81.3,60.9,30.04,East,100,0.0,6.0,50,0.00,,---,0.00,348.00,VWS V14.01,2012-09-24 19:42:00,
2012-09-24 15:47:00,81.4,60.4,30.04,NE,55,1.0,6.0,49,0.00,,---,0.00,397.00,VWS V14.01,2012-09-24 19:47:00,
2012-09-24 15:52:00,81.6,60.6,30.04,East,89,0.0,6.0,49,0.00,,---,0.00,315.00,VWS V14.01,2012-09-24 19:52:00,
2012-09-24 15:57:00,81.1,63.9,30.04,ENE,60,1.0,6.0,56,0.00,,---,0.00,253.00,VWS V14.01,2012-09-24 19:57:00,
2012-09-24 16:00:00,81.3,63.1,30.05,North,359,0.0,10.0,54,0.00,,---,0.00,336.00,VWS V14.01,2012-09-24 20:00:00,
2012-09-24 16:02:00,81.1,62.4,30.04,NE,49,0.0,6.0,53,0.00,,---,0.00,281.00,VWS V14.01,2012-09-24 20:02:00,
2012-09-24 16:07:00,80.9,64.2,30.03,NNE,12,0.0,6.0,57,0.00,,---,0.00,234.00,VWS V14.01,2012-09-24 20:07:00,
2012-09-24 16:12:00,80.5,62.9,30.03,NE,46,0.0,2.0,55,0.00,,---,0.00,204.00,VWS V14.01,2012-09-24 20:12:00,
2012-09-24 16:17:00,80.3,61.6,30.04,NE,52,0.0,2.0,53,0.00,,---,0.00,220.00,VWS V14.01,2012-09-24 20:17:00,
2012-09-24 16:22:00,80.4,61.7,30.03,NE,56,3.0,3.0,53,0.00,,---,0.00,229.00,VWS V14.01,2012-09-24 20:22:00,
2012-09-24 16:27:00,80.9,60.5,30.03,NE,45,0.0,3.0,50,0.00,,---,0.00,243.00,VWS V14.01,2012-09-24 20:27:00,
2012-09-24 16:32:00,81.2,61.9,30.03,NE,48,0.0,4.0,52,0.00,,---,0.00,223.00,VWS V14.01,2012-09-24 20:32:00,
2012-09-24 16:37:00,81.6,60.0,30.03,NE,41,5.0,5.0,48,0.00,,---,0.00,236.00,VWS V14.01,2012-09-24 20:37:00,
2012-09-24 16:42:00,81.5,59.9,30.03,North,6,0.0,5.0,48,0.00,,---,0.00,178.00,VWS V14.01,2012-09-24 20:42:00,
2012-09-24 16:47:00,81.0,59.5,30.03,East,84,3.0,5.0,48,0.00,,---,0.00,165.00,VWS V14.01,2012-09-24 20:47:00,
2012-09-24 16:52:00,80.8,59.9,30.03,ESE,107,2.0,5.0,49,0.00,,---,0.00,186.00,VWS V14.01,2012-09-24 20:52:00,
2012-09-24 16:57:00,80.8,61.0,30.03,ENE,66,1.0,5.0,51,0.00,,---,0.00,183.00,VWS V14.01,2012-09-24 20:57:00,
2012-09-24 17:00:00,80.8,63.7,30.03,NNE,12,0.0,6.0,56,0.00,,---,0.00,223.00,VWS V14.01,2012-09-24 21:00:00,
2012-09-24 17:02:00,80.2,61.0,30.03,NE,44,0.0,5.0,52,0.00,,---,0.00,158.00,VWS V14.01,2012-09-24 21:02:00,
2012-09-24 17:07:00,80.5,60.7,30.03,ENE,72,2.0,5.0,51,0.00,,---,0.00,158.00,VWS V14.01,2012-09-24 21:07:00,
2012-09-24 17:12:00,80.6,60.8,30.03,SE,124,3.0,3.0,51,0.00,,---,0.00,163.00,VWS V14.01,2012-09-24 21:12:00,
2012-09-24 17:17:00,80.7,60.9,30.03,East,94,0.0,4.0,51,0.00,,---,0.00,151.00,VWS V14.01,2012-09-24 21:17:00,
2012-09-24 17:22:00,80.3,61.1,30.03,ENE,65,1.0,4.0,52,0.00,,---,0.00,141.00,VWS V14.01,2012-09-24 21:22:00,
2012-09-24 17:27:00,79.7,62.1,30.03,ESE,109,0.0,4.0,55,0.00,,---,0.00,149.00,VWS V14.01,2012-09-24 21:27:00,
2012-09-24 17:32:00,80.1,61.4,30.03,East,80,1.0,4.0,53,0.00,,---,0.00,125.00,VWS V14.01,2012-09-24 21:32:00,
2012-09-24 17:37:00,79.6,64.0,30.03,NNE,14,1.0,4.0,59,0.00,,---,0.00,127.00,VWS V14.01,2012-09-24 21:37:00,
2012-09-24 17:42:00,79.3,61.8,30.03,East,79,0.0,4.0,55,0.00,,---,0.00,130.00,VWS V14.01,2012-09-24 21:42:00,
2012-09-24 17:47:00,79.0,63.5,30.03,North,360,0.0,4.0,59,0.00,,---,0.00,95.00,VWS V14.01,2012-09-24 21:47:00,
2012-09-24 17:52:00,78.9,63.8,30.03,ENE,72,1.0,4.0,60,0.00,,---,0.00,86.00,VWS V14.01,2012-09-24 21:52:00,
2012-09-24 17:57:00,78.9,62.9,30.03,ENE,71,2.0,4.0,58,0.00,,---,0.00,88.00,VWS V14.01,2012-09-24 21:57:00,
2012-09-24 18:00:00,80.5,61.3,30.03,ESE,102,2.0,5.0,52,0.00,,---,0.00,158.00,VWS V14.01,2012-09-24 22:00:00,
2012-09-24 18:02:00,79.0,63.5,30.03,ENE,74,0.0,4.0,59,0.00,,---,0.00,91.00,VWS V14.01,2012-09-24 22:02:00,
2012-09-24 18:07:00,78.5,64.4,30.03,ENE,77,1.0,4.0,62,0.00,,---,0.00,86.00,VWS V14.01,2012-09-24 22:07:00,
2012-09-24 18:12:00,78.8,62.8,30.03,East,95,0.0,2.0,58,0.00,,---,0.00,74.00,VWS V14.01,2012-09-24 22:12:00,
2012-09-24 18:17:00,78.6,63.1,30.03,ENE,77,2.0,2.0,59,0.00,,---,0.00,58.00,VWS V14.01,2012-09-24 22:17:00,
2012-09-24 18:22:00,78.7,62.7,30.04,ESE,115,0.0,2.0,58,0.00,,---,0.00,56.00,VWS V14.01,2012-09-24 22:22:00,
2012-09-24 18:27:00,78.4,63.4,30.04,ESE,115,1.0,2.0,60,0.00,,---,0.00,54.00,VWS V14.01,2012-09-24 22:27:00,
2012-09-24 18:33:00,78.1,63.6,30.04,ESE,115,0.0,2.0,61,0.00,,---,0.00,44.00,VWS V14.01,2012-09-24 22:33:00,
2012-09-24 18:38:00,77.6,63.6,30.04,ESE,115,0.0,2.0,62,0.00,,---,0.00,39.00,VWS V14.01,2012-09-24 22:38:00,
2012-09-24 18:43:00,77.3,63.3,30.04,ESE,115,0.0,2.0,62,0.00,,---,0.00,32.00,VWS V14.01,2012-09-24 22:43:00,
2012-09-24 18:48:00,77.0,63.5,30.04,ESE,115,0.0,2.0,63,0.00,,---,0.00,26.00,VWS V14.01,2012-09-24 22:48:00,
2012-09-24 18:53:00,76.6,63.1,30.04,ESE,114,0.0,2.0,63,0.00,,---,0.00,23.00,VWS V14.01,2012-09-24 22:53:00,
2012-09-24 18:58:00,76.6,62.6,30.04,East,91,2.0,2.0,62,0.00,,---,0.00,19.00,VWS V14.01,2012-09-24 22:58:00,
2012-09-24 19:00:00,78.5,64.4,30.03,East,91,2.0,4.0,62,0.00,,---,0.00,86.00,VWS V14.01,2012-09-24 23:00:00,
2012-09-24 19:03:00,76.1,63.5,30.03,East,91,1.0,2.0,65,0.00,,---,0.00,14.00,VWS V14.01,2012-09-24 23:03:00,
2012-09-24 19:08:00,75.5,63.8,30.03,East,89,0.0,2.0,67,0.00,,---,0.00,9.00,VWS V14.01,2012-09-24 23:08:00,
2012-09-24 19:13:00,75.6,63.5,30.04,East,89,0.0,1.0,66,0.00,,---,0.00,5.00,VWS V14.01,2012-09-24 23:13:00,
2012-09-24 19:18:00,75.7,63.1,30.04,East,89,0.0,1.0,65,0.00,,---,0.00,0.00,VWS V14.01,2012-09-24 23:18:00,
2012-09-24 19:23:00,75.6,63.0,30.03,East,89,0.0,1.0,65,0.00,,---,0.00,0.00,VWS V14.01,2012-09-24 23:23:00,
2012-09-24 19:28:00,75.4,63.3,30.03,East,89,0.0,1.0,66,0.00,,---,0.00,0.00,VWS V14.01,2012-09-24 23:28:00,
2012-09-24 19:33:00,75.4,63.7,30.04,East,89,0.0,1.0,67,0.00,,---,0.00,0.00,VWS V14.01,2012-09-24 23:33:00,
2012-09-24 19:38:00,75.2,63.9,30.04,East,89,0.0,1.0,68,0.00,,---,0.00,0.00,VWS V14.01,2012-09-24 23:38:00,
2012-09-24 19:43:00,74.8,64.0,30.04,East,89,0.0,1.0,69,0.00,,---,0.00,0.00,VWS V14.01,2012-09-24 23:43:00,
2012-09-24 19:48:00,74.9,64.9,30.04,East,89,0.0,1.0,71,0.00,,---,0.00,0.00,VWS V14.01,2012-09-24 23:48:00,
2012-09-24 19:53:00,74.9,64.9,30.04,East,89,0.0,1.0,71,0.00,,---,0.00,0.00,VWS V14.01,2012-09-24 23:53:00,
2012-09-24 19:58:00,75.0,64.2,30.04,East,89,0.0,1.0,69,0.00,,---,0.00,0.00,VWS V14.01,2012-09-24 23:58:00,
2012-09-24 20:00:00,75.5,63.8,30.03,East,89,0.0,2.0,67,0.00,,---,0.00,9.00,VWS V14.01,2012-09-25 00:00:00,
2012-09-24 20:03:00,75.0,64.2,30.04,East,89,0.0,1.0,69,0.00,,---,0.00,0.00,VWS V14.01,2012-09-25 00:03:00,
2012-09-24 20:08:00,74.7,64.7,30.04,East,89,0.0,0.0,71,0.00,,---,0.00,0.00,VWS V14.01,2012-09-25 00:08:00,
2012-09-24 20:13:00,74.0,65.2,30.04,East,89,0.0,1.0,74,0.00,,---,0.00,0.00,VWS V14.01,2012-09-25 00:13:00,
2012-09-24 20:18:00,73.7,65.3,30.05,NNE,14,0.0,1.0,75,0.00,,---,0.00,0.00,VWS V14.01,2012-09-25 00:18:00,
2012-09-24 20:23:00,73.7,64.9,30.05,NNE,14,0.0,1.0,74,0.00,,---,0.00,0.00,VWS V14.01,2012-09-25 00:23:00,
2012-09-24 20:28:00,73.5,65.1,30.04,NNE,14,0.0,1.0,75,0.00,,---,0.00,0.00,VWS V14.01,2012-09-25 00:28:00,
2012-09-24 20:33:00,73.6,65.2,30.05,NNE,14,0.0,1.0,75,0.00,,---,0.00,0.00,VWS V14.01,2012-09-25 00:33:00,
2012-09-24 20:38:00,73.7,64.5,30.05,NNE,14,0.0,1.0,73,0.00,,---,0.00,0.00,VWS V14.01,2012-09-25 00:38:00,
2012-09-24 20:43:00,73.7,64.5,30.05,NNE,14,0.0,1.0,73,0.00,,---,0.00,0.00,VWS V14.01,2012-09-25 00:43:00,
2012-09-24 20:48:00,73.6,64.8,30.05,NNE,14,0.0,1.0,74,0.00,,---,0.00,0.00,VWS V14.01,2012-09-25 00:48:00,
2012-09-24 20:53:00,73.4,64.6,30.05,NNE,14,0.0,1.0,74,0.00,,---,0.00,0.00,VWS V14.01,2012-09-25 00:53:00,
2012-09-24 20:58:00,73.2,64.4,30.06,NNE,14,0.0,1.0,74,0.00,,---,0.00,0.00,VWS V14.01,2012-09-25 00:58:00,
2012-09-24 21:00:00,74.7,64.7,30.04,East,89,0.0,1.0,71,0.00,,---,0.00,0.00,VWS V14.01,2012-09-25 01:00:00,
2012-09-24 21:03:00,73.1,65.1,30.06,NNE,14,0.0,1.0,76,0.00,,---,0.00,0.00,VWS V14.01,2012-09-25 01:03:00,
2012-09-24 21:08:00,73.0,65.0,30.06,NNE,14,0.0,0.0,76,0.00,,---,0.00,0.00,VWS V14.01,2012-09-25 01:08:00,
2012-09-24 21:13:00,72.9,65.3,30.06,NNE,14,0.0,1.0,77,0.00,,---,0.00,0.00,VWS V14.01,2012-09-25 01:13:00,
2012-09-24 21:18:00,73.0,65.4,30.06,NNE,14,0.0,1.0,77,0.00,,---,0.00,0.00,VWS V14.01,2012-09-25 01:18:00,
2012-09-24 21:23:00,73.0,65.7,30.06,NNE,14,0.0,1.0,78,0.00,,---,0.00,0.00,VWS V14.01,2012-09-25 01:23:00,
2012-09-24 21:28:00,73.2,65.9,30.06,North,360,0.0,2.0,78,0.00,,---,0.00,0.00,VWS V14.01,2012-09-25 01:28:00,
2012-09-24 21:33:00,73.5,64.3,30.06,ENE,57,2.0,6.0,73,0.00,,---,0.00,0.00,VWS V14.01,2012-09-25 01:33:00,
2012-09-24 21:39:00,74.0,64.4,30.06,ENE,62,0.0,6.0,72,0.00,,---,0.00,0.00,VWS V14.01,2012-09-25 01:39:00,
2012-09-24 21:44:00,74.5,64.9,30.06,ENE,66,1.0,6.0,72,0.00,,---,0.00,0.00,VWS V14.01,2012-09-25 01:44:00,
2012-09-24 21:49:00,74.6,65.0,30.06,NE,40,5.0,6.0,72,0.00,,---,0.00,0.00,VWS V14.01,2012-09-25 01:49:00,
2012-09-24 21:54:00,74.4,64.8,30.06,ENE,72,3.0,6.0,72,0.00,,---,0.00,0.00,VWS V14.01,2012-09-25 01:54:00,
2012-09-24 21:59:00,74.2,65.0,30.07,East,86,0.0,6.0,73,0.00,,---,0.00,0.00,VWS V14.01,2012-09-25 01:59:00,
2012-09-24 22:00:00,73.1,65.1,30.06,NNE,14,0.0,1.0,76,0.00,,---,0.00,0.00,VWS V14.01,2012-09-25 02:00:00,
2012-09-24 22:04:00,74.1,64.5,30.07,NNE,13,2.0,6.0,72,0.00,,---,0.00,0.00,VWS V14.01,2012-09-25 02:04:00,
2012-09-24 22:09:00,73.9,65.1,30.07,ENE,57,2.0,4.0,74,0.00,,---,0.00,0.00,VWS V14.01,2012-09-25 02:09:00,
2012-09-24 22:14:00,73.7,65.3,30.07,ENE,58,0.0,4.0,75,0.00,,---,0.00,0.00,VWS V14.01,2012-09-25 02:14:00,
2012-09-24 22:19:00,73.4,65.4,30.07,East,80,3.0,4.0,76,0.00,,---,0.00,0.00,VWS V14.01,2012-09-25 02:19:00,
2012-09-24 22:24:00,73.2,64.8,30.07,NNE,16,2.0,5.0,75,0.00,,---,0.00,0.00,VWS V14.01,2012-09-25 02:24:00,
2012-09-24 22:29:00,73.1,65.1,30.08,NE,42,0.0,5.0,76,0.00,,---,0.00,0.00,VWS V14.01,2012-09-25 02:29:00,
2012-09-24 22:34:00,73.0,65.0,30.08,NE,42,2.0,6.0,76,0.00,,---,0.00,0.00,VWS V14.01,2012-09-25 02:34:00,
2012-09-24 22:39:00,72.9,64.9,30.08,NE,50,2.0,6.0,76,0.00,,---,0.00,0.00,VWS V14.01,2012-09-25 02:39:00,
2012-09-24 22:44:00,72.8,65.2,30.08,ENE,58,2.0,6.0,77,0.00,,---,0.00,0.00,VWS V14.01,2012-09-25 02:44:00,
2012-09-24 22:49:00,72.7,65.4,30.08,ENE,77,1.0,6.0,78,0.00,,---,0.00,0.00,VWS V14.01,2012-09-25 02:49:00,
2012-09-24 22:54:00,72.5,65.3,30.08,NE,53,0.0,6.0,78,0.00,,---,0.00,0.00,VWS V14.01,2012-09-25 02:54:00,
2012-09-24 22:59:00,72.4,65.2,30.08,ENE,70,2.0,6.0,78,0.00,,---,0.00,0.00,VWS V14.01,2012-09-25 02:59:00,
2012-09-24 23:00:00,73.9,64.7,30.07,ENE,70,4.0,6.0,73,0.00,,---,0.00,0.00,VWS V14.01,2012-09-25 03:00:00,
2012-09-24 23:04:00,72.3,65.1,30.08,ENE,63,2.0,6.0,78,0.00,,---,0.00,0.00,VWS V14.01,2012-09-25 03:04:00,
2012-09-24 23:09:00,72.3,65.1,30.08,ENE,73,3.0,4.0,78,0.00,,---,0.00,0.00,VWS V14.01,2012-09-25 03:09:00,
2012-09-24 23:14:00,72.2,65.0,30.08,NE,50,0.0,4.0,78,0.00,,---,0.00,0.00,VWS V14.01,2012-09-25 03:14:00,
2012-09-24 23:19:00,72.0,64.8,30.08,NE,35,1.0,4.0,78,0.00,,---,0.00,0.00,VWS V14.01,2012-09-25 03:19:00,
2012-09-24 23:24:00,71.9,65.0,30.09,NE,43,0.0,4.0,79,0.00,,---,0.00,0.00,VWS V14.01,2012-09-25 03:24:00,
2012-09-24 23:29:00,71.7,64.8,30.08,NE,48,0.0,4.0,79,0.00,,---,0.00,0.00,VWS V14.01,2012-09-25 03:29:00,
2012-09-24 23:34:00,71.4,64.9,30.08,ENE,64,0.0,4.0,80,0.00,,---,0.00,0.00,VWS V14.01,2012-09-25 03:34:00,
2012-09-24 23:39:00,71.2,64.7,30.09,ENE,58,0.0,4.0,80,0.00,,---,0.00,0.00,VWS V14.01,2012-09-25 03:39:00,
2012-09-24 23:44:00,71.1,64.6,30.08,NE,48,0.0,4.0,80,0.00,,---,0.00,0.00,VWS V14.01,2012-09-25 03:44:00,
2012-09-24 23:49:00,71.0,64.5,30.08,East,79,1.0,4.0,80,0.00,,---,0.00,0.00,VWS V14.01,2012-09-25 03:49:00,
2012-09-24 23:54:00,71.0,64.9,30.08,NE,54,2.0,4.0,81,0.00,,---,0.00,0.00,VWS V14.01,2012-09-25 03:54:00,
2012-09-24 23:59:00,70.7,64.6,30.08,ENE,60,1.0,4.0,81,0.00,,---,0.00,0.00,VWS V14.01,2012-09-25 03:59:00,